Regional Weather Roundup
Issued by NWS Green Bay, WI

Home | Current Version | Previous Version | Graphics & Text | Print | Product List | Glossary Off
Versions: 1 2 3 4 5 6 7 8 9 10 11 12 13 14 15 16 17 18 19 20 21 22 23 24 25 26 27 28 29 30 31 32 33 34 35 36 37 38 39 40 41 42 43 44 45 46 47 48 49 50

127
ASUS43 KGRB 230711
RWRGRB

NORTH-CENTRAL AND NORTHEAST WISCONSIN REGIONAL WEATHER ROUNDUP
NATIONAL WEATHER SERVICE GREEN BAY WI
200 AM CDT THU MAR 23 2017

WIZ005-009-010>012-018-019-230800-
NORTH CENTRAL WISCONSIN

CITY           SKY/WX    TMP DP  RH WIND       PRES   REMARKS
IRONWOOD       CLOUDY    30  12  47 S7        30.31F
MANITOWISH WTR CLOUDY    27  12  53 S8        30.32S
ARBOR VITAE    CLOUDY    29  16  57 S8        30.32S
EAGLE RIVER    CLOUDY    25  11  56 S8        30.34S
LAND O LAKES   CLOUDY    27  12  53 S5        30.34F
RHINELANDER    CLOUDY    28  15  58 S6        30.35F
PHILLIPS       CLOUDY    29  15  56 S8        30.32S
ANTIGO         CLOUDY    23  19  85 SE9       30.37F
TOMAHAWK       CLOUDY    27  16  63 CALM      30.35S
MERRILL        CLOUDY    28  18  68 S6        30.38R
$$

WIZ013-073-230800-
NORTHEAST WISCONSIN

CITY           SKY/WX    TMP DP  RH WIND       PRES   REMARKS
IRON MOUNTAIN  CLOUDY    21  15  78 SE5       30.39F
MARINETTE        N/A    N/A N/A N/A MISG        N/A
OCONTO         PTCLDY    24  18  79 S5        30.44F
$$

WIZ017-030-035>037-045-230800-
CENTRAL WISCONSIN

CITY           SKY/WX    TMP DP  RH WIND       PRES   REMARKS
MEDFORD        CLOUDY    28  18  66 SE9       30.33F
WAUSAU         CLOUDY    27  19  72 SE10      30.37F
MOSINEE        CLOUDY    27  21  80 SE8       30.39S
MARSHFIELD     CLOUDY    29  19  66 SE10      30.36R
WISC RAPIDS    CLOUDY    28  20  71 SE8       30.41R
STEVENS POINT  MOCLDY    24  19  79 SE6       30.41R
WAUPACA        CLOUDY    27  22  80 CALM      30.44R
SHAWANO        CLOUDY    25  20  80 CALM      30.43F
CLINTONVILLE   CLOUDY    25  19  80 CALM      30.43F
WAUTOMA        MOCLDY    24  20  84 SE5       30.43R
$$

WIZ038-039-048-051-230800-
FOX VALLEY

CITY           SKY/WX    TMP DP  RH WIND       PRES   REMARKS
NWS GREEN BAY  CLOUDY    24  20  84 SE6       30.44F
APPLETON       CLOUDY    25  18  74 SE7       30.41F
OSHKOSH        CLOUDY    25  19  78 SE7       30.42F
FOND DU LAC    CLOUDY    26  18  71 SE10      30.42F
$$

WIZ022-050-052-230800-
EAST CENTRAL WISCONSIN

CITY           SKY/WX    TMP DP  RH WIND       PRES   REMARKS
EPHRAIM        FAIR      24  19  79 S6        30.44F
WASHINGTON ISL FAIR      22  17  81 CALM      30.45F
STURGEON BAY   CLEAR     25  19  78 SE6       30.45F
MANITOWOC      CLOUDY    26  21  81 SE8       30.46F
SHEBOYGAN      CLEAR     25  19  78 SE5       30.45F
$$

LMZ563-521-522-541>543-230800-
LAKESHORE

STATION/POSITION TIME  TEMP    WIND        PRES    VSBY  WAVE
                       AIR SEA DIR/SP/G                  HT/PER
                 (UTC) (F)     (DEG/KT/KT) (MB)    (MI)  (FT/S)
SHEBOYGAN LKSHOR 0700   30     140/ 13/ 14 1032.1F
KEWAUNEE LKSHORE 0648          170/ 11/ 13 1031.0F
NORTHPORT PIER   0640   25      CALM  /  2 1031.5F
CHAMBERS ISLAND  0640   25     150/  3/  6 1030.8F
MENOMINEE LKSHOR 0648          170/  8/ 12 1030.0F
$$




USA.gov is the U.S. government's official web portal to all federal, state and local government web resources and services.